• In Czech Republic
  • List of Countries
  • For 7 days
  • Water Temperature
  • Satellite Maps
  • Weather Map
  • Weather Widgets
  • user-avatar
    Login

    Hourly Weather Tibissa

    Today, 20 September, Thursday

    Time Temperature Precipitation Wind Pressure Humidity
    00:00 +25°C° 0.5 mm 2 mps 688 mmHg 52%
    01:00 +24°C° 0 mm 1 mps 688 mmHg 58%
    02:00 +24°C° 0.1 mm 1 mps 688 mmHg 60%
    03:00 +23°C° 0.1 mm 1 mps 688 mmHg 61%
    04:00 +23°C° 0.1 mm 1 mps 687 mmHg 63%
    05:00 +21°C° 0.1 mm 0 mps 687 mmHg 63%
    06:00 +21°C° 0.1 mm 0 mps 687 mmHg 63%
    07:00 +21°C° 0 mm 0 mps 688 mmHg 58%
    08:00 +24°C° 0 mm 1 mps 688 mmHg 53%
    09:00 +25°C° 0 mm 1 mps 688 mmHg 48%
    10:00 +26°C° 0 mm 2 mps 688 mmHg 44%
    11:00 +27°C° 0.1 mm 3 mps 688 mmHg 41%
    12:00 +28°C° 0.1 mm 3 mps 688 mmHg 38%
    13:00 +29°C° 0.1 mm 4 mps 688 mmHg 35%
    14:00 +28°C° 0 mm 3 mps 688 mmHg 37%
    15:00 +28°C° 0 mm 3 mps 687 mmHg 39%
    16:00 +27°C° 0 mm 3 mps 687 mmHg 40%
    17:00 +26°C° 0.9 mm 3 mps 687 mmHg 46%
    18:00 +25°C° 0.9 mm 3 mps 686 mmHg 51%
    19:00 +24°C° 0.9 mm 2 mps 686 mmHg 56%
    20:00 +24°C° 0.4 mm 2 mps 686 mmHg 59%
    21:00 +24°C° 0.4 mm 2 mps 687 mmHg 61%
    22:00 +23°C° 0.4 mm 2 mps 687 mmHg 64%
    23:00 +23°C° 0.7 mm 2 mps 687 mmHg 65%

    Tomorrow, 21 September, Friday

    Time Temperature Precipitation Wind Pressure Humidity
    00:00 +23°C° 0.7 mm 2 mps 687 mmHg 67%
    01:00 +21°C° 0.7 mm 2 mps 687 mmHg 69%
    02:00 +21°C° 0.1 mm 2 mps 686 mmHg 71%
    03:00 +20°C° 0.1 mm 2 mps 686 mmHg 72%
    04:00 +20°C° 0.1 mm 2 mps 686 mmHg 74%
    05:00 +20°C° 0.1 mm 2 mps 686 mmHg 75%
    06:00 +20°C° 0.1 mm 2 mps 686 mmHg 75%
    07:00 +20°C° 0.1 mm 2 mps 686 mmHg 76%
    08:00 +21°C° 0 mm 2 mps 686 mmHg 70%
    09:00 +23°C° 0 mm 2 mps 687 mmHg 64%
    10:00 +23°C° 0 mm 2 mps 687 mmHg 58%
    11:00 +24°C° 0.1 mm 2 mps 687 mmHg 53%
    12:00 +25°C° 0.1 mm 2 mps 687 mmHg 49%
    13:00 +26°C° 0.1 mm 2 mps 688 mmHg 45%
    14:00 +26°C° 0.1 mm 3 mps 687 mmHg 43%
    15:00 +27°C° 0.1 mm 3 mps 687 mmHg 41%
    16:00 +27°C° 0.1 mm 3 mps 687 mmHg 39%
    17:00 +26°C° 0 mm 4 mps 687 mmHg 42%
    18:00 +26°C° 0 mm 4 mps 687 mmHg 46%
    19:00 +25°C° 0 mm 5 mps 687 mmHg 49%
    20:00 +23°C° 0 mm 5 mps 688 mmHg 55%
    21:00 +22°C° 0 mm 5 mps 688 mmHg 61%
    22:00 +21°C° 0 mm 4 mps 688 mmHg 67%
    23:00 +21°C° 0 mm 4 mps 688 mmHg 68%

    Day after tomorrow, 22 September, Saturday

    Time Temperature Precipitation Wind Pressure Humidity
    00:00 +21°C° 0 mm 3 mps 688 mmHg 69%
    01:00 +20°C° 0 mm 3 mps 688 mmHg 69%
    02:00 +20°C° 0 mm 3 mps 688 mmHg 70%
    03:00 +20°C° 0 mm 3 mps 688 mmHg 71%
    04:00 +19°C° 0 mm 3 mps 688 mmHg 72%
    05:00 +19°C° 0 mm 3 mps 688 mmHg 73%
    06:00 +19°C° 0 mm 4 mps 688 mmHg 74%
    07:00 +19°C° 0 mm 4 mps 689 mmHg 75%
    08:00 +20°C° 0 mm 5 mps 689 mmHg 69%
    09:00 +21°C° 0 mm 5 mps 690 mmHg 64%
    10:00 +23°C° 0 mm 6 mps 690 mmHg 59%
    11:00 +24°C° 0 mm 6 mps 690 mmHg 55%
    12:00 +24°C° 0 mm 6 mps 691 mmHg 51%
    13:00 +26°C° 0 mm 6 mps 691 mmHg 47%
    14:00 +27°C° 0 mm 6 mps 690 mmHg 46%
    15:00 +27°C° 0 mm 6 mps 690 mmHg 44%
    16:00 +27°C° 0 mm 6 mps 690 mmHg 43%
    17:00 +26°C° 0 mm 6 mps 690 mmHg 46%
    18:00 +24°C° 0 mm 6 mps 690 mmHg 49%
    19:00 +24°C° 0 mm 6 mps 690 mmHg 52%
    20:00 +23°C° 0 mm 5 mps 691 mmHg 55%
    21:00 +22°C° 0 mm 5 mps 691 mmHg 58%
    22:00 +22°C° 0 mm 4 mps 691 mmHg 62%
    23:00 +21°C° 0 mm 4 mps 691 mmHg 63%

    23 September, Sunday

    Time Temperature Precipitation Wind Pressure Humidity
    00:00 +21°C° 0 mm 3 mps 691 mmHg 65%
    01:00 +20°C° 0 mm 3 mps 691 mmHg 66%
    02:00 +20°C° 0 mm 3 mps 691 mmHg 68%
    03:00 +20°C° 0 mm 3 mps 690 mmHg 70%
    04:00 +19°C° 0 mm 3 mps 690 mmHg 71%
    05:00 +19°C° 0 mm 2 mps 690 mmHg 71%
    06:00 +19°C° 0 mm 2 mps 690 mmHg 71%
    07:00 +19°C° 0 mm 2 mps 690 mmHg 71%
    08:00 +20°C° 0 mm 2 mps 691 mmHg 64%
    09:00 +22°C° 0 mm 3 mps 691 mmHg 57%
    10:00 +24°C° 0 mm 3 mps 692 mmHg 50%
    11:00 +25°C° 0 mm 3 mps 692 mmHg 46%
    12:00 +26°C° 0 mm 3 mps 692 mmHg 43%
    13:00 +27°C° 0 mm 2 mps 692 mmHg 39%
    14:00 +27°C° 0 mm 2 mps 691 mmHg 38%
    15:00 +28°C° 0 mm 2 mps 691 mmHg 36%
    16:00 +28°C° 0 mm 2 mps 691 mmHg 35%
    17:00 +28°C° 0 mm 2 mps 691 mmHg 37%
    18:00 +27°C° 0 mm 2 mps 691 mmHg 39%
    19:00 +27°C° 0 mm 2 mps 691 mmHg 41%
    20:00 +26°C° 0 mm 2 mps 691 mmHg 44%
    21:00 +25°C° 0 mm 2 mps 691 mmHg 48%
    22:00 +25°C° 0 mm 1 mps 691 mmHg 51%
    23:00 +24°C° 0 mm 1 mps 691 mmHg 54%

    24 September, Monday

    Time Temperature Precipitation Wind Pressure Humidity
    00:00 +24°C° 0 mm 1 mps 691 mmHg 57%
    01:00 +23°C° 0 mm 1 mps 690 mmHg 60%
    02:00 +23°C° 0 mm 1 mps 690 mmHg 62%
    03:00 +20°C° 0 mm 0 mps 690 mmHg 63%
    04:00 +20°C° 0 mm 0 mps 689 mmHg 65%
    05:00 +20°C° 0 mm 0 mps 689 mmHg 65%
    06:00 +20°C° 0 mm 0 mps 689 mmHg 65%
    07:00 +22°C° 0 mm 1 mps 689 mmHg 65%
    08:00 +23°C° 0 mm 1 mps 690 mmHg 58%
    09:00 +24°C° 0 mm 2 mps 690 mmHg 52%
    10:00 +26°C° 0 mm 2 mps 690 mmHg 46%
    11:00 +27°C° 0 mm 3 mps 690 mmHg 42%
    12:00 +27°C° 0 mm 3 mps 690 mmHg 37%
    13:00 +28°C° 0 mm 3 mps 690 mmHg 32%
    14:00 +29°C° 0 mm 3 mps 690 mmHg 31%
    15:00 +29°C° 0 mm 4 mps 690 mmHg 30%
    16:00 +29°C° 0 mm 4 mps 689 mmHg 28%
    17:00 +28°C° 0 mm 4 mps 689 mmHg 31%
    18:00 +28°C° 0 mm 4 mps 689 mmHg 33%
    19:00 +27°C° 0 mm 4 mps 689 mmHg 35%
    20:00 +26°C° 0 mm 4 mps 689 mmHg 40%
    21:00 +25°C° 0 mm 3 mps 690 mmHg 44%
    22:00 +24°C° 0 mm 3 mps 690 mmHg 49%
    23:00 +24°C° 0 mm 2 mps 690 mmHg 52%

    25 September, Tuesday

    Time Temperature Precipitation Wind Pressure Humidity
    00:00 +23°C° 0 mm 2 mps 689 mmHg 56%
    01:00 +21°C° 0 mm 2 mps 689 mmHg 60%
    02:00 +21°C° 0 mm 2 mps 689 mmHg 62%
    03:00 +21°C° 0 mm 2 mps 689 mmHg 64%
    04:00 +20°C° 0 mm 2 mps 689 mmHg 66%
    05:00 +20°C° 0 mm 2 mps 689 mmHg 68%
    06:00 +20°C° 0 mm 2 mps 689 mmHg 70%
    07:00 +19°C° 0 mm 2 mps 689 mmHg 72%
    08:00 +20°C° 0 mm 2 mps 689 mmHg 66%
    09:00 +21°C° 0 mm 2 mps 690 mmHg 60%
    10:00 +24°C° 0 mm 2 mps 690 mmHg 55%
    11:00 +25°C° 0 mm 2 mps 690 mmHg 50%
    12:00 +26°C° 0 mm 3 mps 690 mmHg 45%
    13:00 +27°C° 0 mm 3 mps 690 mmHg 41%
    14:00 +27°C° 0 mm 3 mps 690 mmHg 39%
    15:00 +27°C° 0 mm 4 mps 689 mmHg 38%
    16:00 +28°C° 0 mm 4 mps 689 mmHg 36%
    17:00 +27°C° 0 mm 4 mps 689 mmHg 40%
    18:00 +26°C° 0 mm 5 mps 689 mmHg 44%
    19:00 +25°C° 0 mm 5 mps 689 mmHg 48%
    20:00 +23°C° 0 mm 5 mps 690 mmHg 53%
    21:00 +22°C° 0 mm 4 mps 690 mmHg 58%
    22:00 +21°C° 0 mm 4 mps 690 mmHg 63%
    23:00 +21°C° 0.1 mm 3 mps 690 mmHg 65%
    Show more